• In Uzbekistan
  • List of Countries
  • For 7 days
  • Water Temperature
  • Satellite Maps
  • Weather Map
  • Weather Widgets
  • user-avatar
    Login

    Hourly Weather Naryn

    Today, 22 January, Tuesday

    Time Temperature Precipitation Wind Pressure Humidity
    00:00 -16°C° 0 mm 2 mps 560 mmHg 71%
    01:00 -16°C° 0 mm 2 mps 560 mmHg 69%
    02:00 -16°C° 0 mm 2 mps 560 mmHg 68%
    03:00 -17°C° 0 mm 3 mps 560 mmHg 64%
    04:00 -17°C° 0 mm 3 mps 560 mmHg 61%
    05:00 -15°C° 0 mm 3 mps 560 mmHg 58%
    06:00 -15°C° 0 mm 3 mps 560 mmHg 59%
    07:00 -15°C° 0 mm 3 mps 560 mmHg 59%
    08:00 -15°C° 0 mm 3 mps 560 mmHg 60%
    09:00 -12°C° 0 mm 2 mps 560 mmHg 63%
    10:00 -10°C° 0 mm 2 mps 561 mmHg 67%
    11:00 -8°C° 0 mm 2 mps 561 mmHg 71%
    12:00 -6°C° 0 mm 1 mps 561 mmHg 71%
    13:00 -6°C° 0 mm 1 mps 561 mmHg 71%
    14:00 -4°C° 0 mm 1 mps 561 mmHg 71%
    15:00 -7°C° 0 mm 1 mps 560 mmHg 70%
    16:00 -8°C° 0 mm 1 mps 560 mmHg 68%
    17:00 -12°C° 0 mm 2 mps 559 mmHg 67%
    18:00 -12°C° 0 mm 2 mps 559 mmHg 67%
    19:00 -13°C° 0 mm 2 mps 559 mmHg 67%
    20:00 -14°C° 0 mm 3 mps 560 mmHg 67%
    21:00 -15°C° 0 mm 3 mps 559 mmHg 67%
    22:00 -14°C° 0 mm 2 mps 559 mmHg 67%
    23:00 -15°C° 0 mm 2 mps 559 mmHg 67%

    Tomorrow, 23 January, Wednesday

    Time Temperature Precipitation Wind Pressure Humidity
    00:00 -15°C° 0 mm 2 mps 558 mmHg 66%
    01:00 -17°C° 0 mm 3 mps 558 mmHg 66%
    02:00 -17°C° 0 mm 3 mps 557 mmHg 66%
    03:00 -16°C° 0 mm 2 mps 557 mmHg 65%
    04:00 -17°C° 0 mm 2 mps 557 mmHg 65%
    05:00 -17°C° 0 mm 2 mps 557 mmHg 65%
    06:00 -17°C° 0 mm 2 mps 558 mmHg 66%
    07:00 -17°C° 0 mm 2 mps 558 mmHg 66%
    08:00 -17°C° 0 mm 2 mps 558 mmHg 66%
    09:00 -15°C° 0 mm 2 mps 559 mmHg 68%
    10:00 -11°C° 0 mm 1 mps 560 mmHg 70%
    11:00 -9°C° 0 mm 1 mps 561 mmHg 72%
    12:00 -9°C° 0 mm 1 mps 560 mmHg 73%
    13:00 -9°C° 0 mm 0 mps 560 mmHg 74%
    14:00 -8°C° 0 mm 0 mps 560 mmHg 75%
    15:00 -10°C° 0 mm 1 mps 560 mmHg 75%
    16:00 -11°C° 0 mm 1 mps 559 mmHg 75%
    17:00 -13°C° 0 mm 1 mps 559 mmHg 75%
    18:00 -13°C° 0 mm 1 mps 559 mmHg 75%
    19:00 -15°C° 0 mm 2 mps 560 mmHg 74%
    20:00 -15°C° 0 mm 2 mps 560 mmHg 74%
    21:00 -16°C° 0 mm 2 mps 560 mmHg 74%
    22:00 -16°C° 0 mm 2 mps 560 mmHg 73%
    23:00 -16°C° 0 mm 2 mps 560 mmHg 73%

    Day after tomorrow, 24 January, Thursday

    Time Temperature Precipitation Wind Pressure Humidity
    00:00 -16°C° 0 mm 2 mps 560 mmHg 73%
    01:00 -16°C° 0 mm 2 mps 560 mmHg 73%
    02:00 -16°C° 0 mm 2 mps 560 mmHg 73%
    03:00 -17°C° 0 mm 2 mps 560 mmHg 73%
    04:00 -17°C° 0 mm 2 mps 561 mmHg 73%
    05:00 -17°C° 0 mm 2 mps 561 mmHg 74%
    06:00 -17°C° 0 mm 2 mps 561 mmHg 74%
    07:00 -17°C° 0 mm 2 mps 562 mmHg 74%
    08:00 -17°C° 0 mm 2 mps 562 mmHg 74%
    09:00 -13°C° 0 mm 1 mps 563 mmHg 74%
    10:00 -12°C° 0 mm 1 mps 564 mmHg 75%
    11:00 -11°C° 0 mm 0 mps 564 mmHg 75%
    12:00 -10°C° 0 mm 1 mps 564 mmHg 76%
    13:00 -10°C° 0 mm 1 mps 564 mmHg 78%
    14:00 -10°C° 0 mm 1 mps 564 mmHg 79%
    15:00 -12°C° 0 mm 1 mps 564 mmHg 80%
    16:00 -13°C° 0 mm 1 mps 563 mmHg 81%
    17:00 -15°C° 0 mm 1 mps 563 mmHg 81%
    18:00 -15°C° 0 mm 1 mps 563 mmHg 80%
    19:00 -18°C° 0 mm 2 mps 564 mmHg 79%
    20:00 -18°C° 0 mm 2 mps 564 mmHg 78%
    21:00 -18°C° 0 mm 2 mps 564 mmHg 77%
    22:00 -19°C° 0 mm 2 mps 564 mmHg 77%
    23:00 -19°C° 0 mm 2 mps 564 mmHg 76%

    25 January, Friday

    Time Temperature Precipitation Wind Pressure Humidity
    00:00 -19°C° 0 mm 2 mps 564 mmHg 76%
    01:00 -20°C° 0 mm 2 mps 564 mmHg 76%
    02:00 -20°C° 0 mm 2 mps 564 mmHg 76%
    03:00 -22°C° 0 mm 3 mps 564 mmHg 76%
    04:00 -22°C° 0 mm 3 mps 564 mmHg 75%
    05:00 -22°C° 0 mm 3 mps 564 mmHg 75%
    06:00 -22°C° 0 mm 3 mps 564 mmHg 75%
    07:00 -22°C° 0 mm 3 mps 565 mmHg 74%
    08:00 -22°C° 0 mm 3 mps 565 mmHg 74%
    09:00 -18°C° 0 mm 2 mps 565 mmHg 73%
    10:00 -16°C° 0 mm 2 mps 566 mmHg 73%
    11:00 -12°C° 0 mm 1 mps 566 mmHg 73%
    12:00 -12°C° 0 mm 1 mps 566 mmHg 72%
    13:00 -11°C° 0 mm 1 mps 566 mmHg 72%
    14:00 -10°C° 0 mm 1 mps 566 mmHg 71%
    15:00 -12°C° 0 mm 1 mps 565 mmHg 68%
    16:00 -15°C° 0 mm 2 mps 564 mmHg 65%
    17:00 -16°C° 0 mm 2 mps 564 mmHg 61%
    18:00 -18°C° 0 mm 3 mps 564 mmHg 58%
    19:00 -19°C° 0 mm 3 mps 565 mmHg 55%
    20:00 -19°C° 0 mm 3 mps 565 mmHg 53%
    21:00 -20°C° 0 mm 4 mps 565 mmHg 54%
    22:00 -22°C° 0 mm 4 mps 565 mmHg 56%
    23:00 -22°C° 0 mm 4 mps 564 mmHg 58%

    26 January, Saturday

    Time Temperature Precipitation Wind Pressure Humidity
    00:00 -22°C° 0 mm 4 mps 564 mmHg 59%
    01:00 -22°C° 0 mm 4 mps 564 mmHg 60%
    02:00 -23°C° 0 mm 4 mps 564 mmHg 62%
    03:00 -23°C° 0 mm 4 mps 563 mmHg 61%
    04:00 -23°C° 0 mm 4 mps 563 mmHg 61%
    05:00 -22°C° 0 mm 3 mps 563 mmHg 61%
    06:00 -22°C° 0 mm 3 mps 563 mmHg 61%
    07:00 -22°C° 0 mm 3 mps 564 mmHg 61%
    08:00 -22°C° 0 mm 3 mps 564 mmHg 61%
    09:00 -18°C° 0 mm 3 mps 565 mmHg 64%
    10:00 -15°C° 0 mm 2 mps 565 mmHg 67%
    11:00 -13°C° 0 mm 2 mps 566 mmHg 70%
    12:00 -10°C° 0 mm 1 mps 566 mmHg 70%
    13:00 -10°C° 0 mm 1 mps 566 mmHg 70%
    14:00 -9°C° 0 mm 0 mps 565 mmHg 70%
    15:00 -11°C° 0 mm 1 mps 565 mmHg 69%
    16:00 -13°C° 0 mm 1 mps 564 mmHg 69%
    17:00 -16°C° 0 mm 2 mps 563 mmHg 68%
    18:00 -17°C° 0 mm 2 mps 564 mmHg 66%
    19:00 -18°C° 0 mm 3 mps 564 mmHg 64%
    20:00 -19°C° 0 mm 3 mps 564 mmHg 61%
    21:00 -19°C° 0 mm 3 mps 564 mmHg 60%
    22:00 -21°C° 0 mm 3 mps 564 mmHg 59%
    23:00 -21°C° 0 mm 3 mps 564 mmHg 57%

    27 January, Sunday

    Time Temperature Precipitation Wind Pressure Humidity
    00:00 -21°C° 0 mm 3 mps 563 mmHg 56%
    01:00 -22°C° 0 mm 3 mps 563 mmHg 55%
    02:00 -22°C° 0 mm 3 mps 563 mmHg 54%
    03:00 -22°C° 0 mm 3 mps 563 mmHg 52%
    04:00 -22°C° 0 mm 3 mps 563 mmHg 50%
    05:00 -22°C° 0 mm 3 mps 563 mmHg 49%
    06:00 -22°C° 0 mm 3 mps 563 mmHg 48%
    07:00 -22°C° 0 mm 3 mps 563 mmHg 47%
    08:00 -22°C° 0 mm 3 mps 564 mmHg 45%
    09:00 -19°C° 0 mm 3 mps 564 mmHg 51%
    10:00 -16°C° 0 mm 2 mps 565 mmHg 56%
    11:00 -13°C° 0 mm 2 mps 565 mmHg 61%
    12:00 -11°C° 0 mm 1 mps 565 mmHg 61%
    13:00 -10°C° 0 mm 1 mps 565 mmHg 62%
    14:00 -9°C° 0 mm 0 mps 565 mmHg 63%
    15:00 -11°C° 0 mm 1 mps 564 mmHg 60%
    16:00 -13°C° 0 mm 1 mps 564 mmHg 58%
    17:00 -16°C° 0 mm 2 mps 563 mmHg 55%
    18:00 -17°C° 0 mm 2 mps 563 mmHg 53%
    19:00 -18°C° 0 mm 3 mps 563 mmHg 52%
    20:00 -19°C° 0 mm 3 mps 564 mmHg 50%
    21:00 -19°C° 0 mm 3 mps 563 mmHg 49%
    22:00 -21°C° 0 mm 3 mps 563 mmHg 49%
    23:00 -21°C° 0 mm 3 mps 563 mmHg 48%
    Show more